| time (UTC) | temp F | wind direction | speed MPH | gust MPH | rain 1hr in | rain 24hr in | rain mn in | humidity % | barometer mb |
| 20260505153028 | 54 | 271 | 0.0 | 0.0 | 0.00 | 0.00 | 0.00 | 89 | 1014.1 |
| 20260505152521 | 54 | 271 | 0.0 | 2.0 | 0.00 | 0.00 | 0.00 | 91 | 1014.1 |
| 20260505152032 | 54 | 271 | 0.0 | 2.0 | 0.00 | 0.00 | 0.00 | 92 | 1014.0 |
| 20260505151552 | 53 | 272 | 0.0 | 0.0 | 0.00 | 0.00 | 0.00 | 92 | 1014.0 |
| 20260505151055 | 53 | 272 | 0.0 | 0.0 | 0.00 | 0.00 | 0.00 | 92 | 1014.1 |
| 20260505150602 | 52 | 272 | 0.0 | 3.0 | 0.00 | 0.00 | 0.00 | 92 | 1014.0 |
| 20260505140605 | 47 | 276 | 0.0 | 0.0 | 0.00 | 0.00 | 0.00 | 91 | 1014.0 |
| 20260505125032 | 46 | 276 | 0.0 | 0.0 | 0.00 | 0.00 | 0.00 | 89 | 1013.6 |
| 20260505124552 | 46 | 276 | 0.0 | 0.0 | 0.00 | 0.00 | 0.00 | 89 | 1013.6 |
| 20260505124020 | 47 | 276 | 0.0 | 0.0 | 0.00 | 0.00 | 0.00 | 89 | 1013.7 |
| 20260505123514 | 47 | 276 | 0.0 | 0.0 | 0.00 | 0.00 | 0.00 | 89 | 1013.7 |
| 20260505123026 | 47 | 276 | 0.0 | 0.0 | 0.00 | 0.00 | 0.00 | 89 | 1013.8 |
| 20260505122520 | 47 | 276 | 0.0 | 0.0 | 0.00 | 0.00 | 0.00 | 89 | 1013.8 |
| 20260505122032 | 47 | 276 | 0.0 | 0.0 | 0.00 | 0.00 | 0.00 | 89 | 1013.7 |
| 20260505121549 | 47 | 276 | 0.0 | 0.0 | 0.00 | 0.00 | 0.00 | 89 | 1013.7 |
| 20260505121045 | 47 | 276 | 0.0 | 0.0 | 0.00 | 0.00 | 0.00 | 89 | 1013.7 |
| 20260505120547 | 47 | 276 | 0.0 | 0.0 | 0.00 | 0.00 | 0.00 | 89 | 1013.7 |
| 20260505120020 | 47 | 276 | 0.0 | 0.0 | 0.00 | 0.00 | 0.00 | 89 | 1013.7 |
| 20260505115536 | 47 | 276 | 0.0 | 0.0 | 0.00 | 0.00 | 0.00 | 89 | 1013.8 |
| 20260505115028 | 47 | 276 | 0.0 | 0.0 | 0.00 | 0.00 | 0.00 | 88 | 1013.7 |
| 20260505114525 | 47 | 276 | 0.0 | 0.0 | 0.00 | 0.00 | 0.00 | 88 | 1013.7 |
| 20260505114043 | 47 | 276 | 0.0 | 0.0 | 0.00 | 0.00 | 0.00 | 88 | 1013.6 |
| 20260505113523 | 47 | 276 | 0.0 | 0.0 | 0.00 | 0.00 | 0.00 | 88 | 1013.7 |
| 20260505113020 | 47 | 276 | 0.0 | 0.0 | 0.00 | 0.00 | 0.00 | 88 | 1013.8 |
| 20260505112521 | 47 | 276 | 0.0 | 0.0 | 0.00 | 0.00 | 0.00 | 88 | 1013.8 |
| 20260505112028 | 47 | 276 | 0.0 | 0.0 | 0.00 | 0.00 | 0.00 | 87 | 1013.8 |
| 20260505111531 | 48 | 276 | 0.0 | 0.0 | 0.00 | 0.00 | 0.00 | 87 | 1013.7 |
| 20260505111021 | 48 | 276 | 0.0 | 0.0 | 0.00 | 0.00 | 0.00 | 87 | 1013.7 |
| 20260505110546 | 48 | 276 | 0.0 | 0.0 | 0.00 | 0.00 | 0.00 | 87 | 1013.8 |
| 20260505102051 | 49 | 276 | 0.0 | 0.0 | 0.00 | 0.00 | 0.00 | 86 | 1013.8 |
| 20260505101553 | 49 | 276 | 0.0 | 0.0 | 0.00 | 0.00 | 0.00 | 85 | 1013.8 |
| 20260505101023 | 49 | 276 | 0.0 | 0.0 | 0.00 | 0.00 | 0.00 | 85 | 1013.8 |
| 20260505100617 | 49 | 276 | 0.0 | 0.0 | 0.00 | 0.00 | 0.00 | 85 | 1013.8 |
| 20260505100018 | 49 | 276 | 0.0 | 0.0 | 0.00 | 0.00 | 0.00 | 85 | 1013.8 |
| 20260505095540 | 49 | 276 | 0.0 | 0.0 | 0.00 | 0.00 | 0.00 | 84 | 1013.9 |
| 20260505095029 | 49 | 276 | 0.0 | 0.0 | 0.00 | 0.00 | 0.00 | 84 | 1014.0 |
| 20260505094532 | 50 | 276 | 0.0 | 0.0 | 0.00 | 0.00 | 0.00 | 84 | 1014.0 |
| 20260505094022 | 50 | 276 | 0.0 | 0.0 | 0.00 | 0.00 | 0.00 | 84 | 1014.0 |
| 20260505093518 | 50 | 276 | 0.0 | 0.0 | 0.00 | 0.00 | 0.00 | 83 | 1014.1 |
| 20260505093026 | 50 | 276 | 0.0 | 0.0 | 0.00 | 0.00 | 0.00 | 83 | 1014.1 |
| 20260505092527 | 50 | 276 | 0.0 | 0.0 | 0.00 | 0.00 | 0.00 | 83 | 1014.2 |
| 20260505092021 | 50 | 276 | 0.0 | 0.0 | 0.00 | 0.00 | 0.00 | 82 | 1014.2 |
| 20260505091523 | 50 | 276 | 0.0 | 0.0 | 0.00 | 0.00 | 0.00 | 82 | 1014.3 |
| 20260505091021 | 51 | 276 | 0.0 | 0.0 | 0.00 | 0.00 | 0.00 | 81 | 1014.4 |
| 20260505090611 | 51 | 276 | 0.0 | 0.0 | 0.00 | 0.00 | 0.00 | 80 | 1014.4 |
| 20260505090033 | 51 | 276 | 0.0 | 0.0 | 0.00 | 0.00 | 0.00 | 80 | 1014.4 |
| 20260505085533 | 52 | 276 | 0.0 | 0.0 | 0.00 | 0.00 | 0.00 | 80 | 1014.5 |
| 20260505085024 | 52 | 276 | 0.0 | 0.0 | 0.00 | 0.00 | 0.00 | 80 | 1014.6 |
| 20260505084522 | 52 | 276 | 0.0 | 0.0 | 0.00 | 0.00 | 0.00 | 79 | 1014.6 |
| 20260505084012 | 52 | 276 | 0.0 | 0.0 | 0.00 | 0.00 | 0.00 | 80 | 1014.6 |
| 20260505083534 | 53 | 276 | 0.0 | 0.0 | 0.00 | 0.00 | 0.00 | 80 | 1014.6 |
| 20260505083042 | 53 | 276 | 0.0 | 0.0 | 0.00 | 0.00 | 0.00 | 80 | 1014.7 |
| 20260505082523 | 53 | 276 | 0.0 | 0.0 | 0.00 | 0.00 | 0.00 | 80 | 1014.7 |
| 20260505082041 | 53 | 276 | 0.0 | 0.0 | 0.00 | 0.00 | 0.00 | 80 | 1014.8 |
| 20260505081516 | 53 | 276 | 0.0 | 0.0 | 0.00 | 0.00 | 0.00 | 80 | 1014.9 |
| 20260505081025 | 53 | 276 | 0.0 | 0.0 | 0.00 | 0.00 | 0.00 | 80 | 1014.9 |
| 20260505080620 | 53 | 276 | 0.0 | 0.0 | 0.00 | 0.00 | 0.00 | 80 | 1014.9 |
| 20260505080021 | 54 | 276 | 0.0 | 0.0 | 0.00 | 0.00 | 0.00 | 80 | 1014.9 |
| 20260505075519 | 54 | 276 | 0.0 | 0.0 | 0.00 | 0.00 | 0.00 | 80 | 1015.0 |
| 20260505075031 | 54 | 276 | 0.0 | 0.0 | 0.00 | 0.00 | 0.00 | 80 | 1015.0 |
| 20260505074527 | 54 | 276 | 0.0 | 0.0 | 0.00 | 0.00 | 0.00 | 80 | 1015.1 |
| 20260505074018 | 54 | 276 | 0.0 | 0.0 | 0.00 | 0.00 | 0.00 | 79 | 1015.1 |
| 20260505073541 | 54 | 276 | 0.0 | 0.0 | 0.00 | 0.00 | 0.00 | 80 | 1015.1 |
| 20260505073030 | 54 | 276 | 0.0 | 0.0 | 0.00 | 0.00 | 0.00 | 80 | 1015.1 |
| 20260505072533 | 54 | 276 | 0.0 | 0.0 | 0.00 | 0.00 | 0.00 | 80 | 1015.0 |
| 20260505072044 | 54 | 276 | 0.0 | 0.0 | 0.00 | 0.00 | 0.00 | 80 | 1015.0 |
| 20260505071519 | 54 | 276 | 0.0 | 1.0 | 0.00 | 0.00 | 0.00 | 80 | 1015.0 |
| 20260505071050 | 54 | 276 | 0.0 | 1.0 | 0.00 | 0.00 | 0.00 | 80 | 1015.1 |
| 20260505070551 | 54 | 276 | 0.0 | 0.0 | 0.00 | 0.00 | 0.00 | 80 | 1015.2 |
| 20260505070013 | 54 | 276 | 0.0 | 0.0 | 0.00 | 0.00 | 0.00 | 80 | 1015.1 |
| 20260505065536 | 54 | 276 | 0.0 | 0.0 | 0.00 | 0.00 | 0.00 | 80 | 1015.1 |
| 20260505065023 | 54 | 276 | 0.0 | 0.0 | 0.00 | 0.00 | 0.00 | 83 | 1015.1 |
| 20260505064522 | 54 | 276 | 0.0 | 0.0 | 0.00 | 0.00 | 0.00 | 80 | 1015.1 |
| 20260505064019 | 54 | 276 | 0.0 | 0.0 | 0.00 | 0.00 | 0.00 | 80 | 1015.2 |
| 20260505063515 | 54 | 276 | 0.0 | 3.0 | 0.00 | 0.00 | 0.00 | 80 | 1015.0 |
| 20260505063051 | 54 | 276 | 0.0 | 3.0 | 0.00 | 0.00 | 0.00 | 80 | 1015.1 |
| 20260505062528 | 54 | 236 | 0.0 | 0.0 | 0.00 | 0.00 | 0.00 | 81 | 1015.0 |
| 20260505062039 | 54 | 236 | 0.0 | 0.0 | 0.00 | 0.00 | 0.00 | 80 | 1015.2 |
| 20260505061518 | 54 | 236 | 0.0 | 0.0 | 0.00 | 0.00 | 0.00 | 80 | 1015.1 |
| 20260505061016 | 54 | 236 | 0.0 | 0.0 | 0.00 | 0.00 | 0.00 | 81 | 1015.1 |
| 20260505060558 | 54 | 236 | 0.0 | 0.0 | 0.00 | 0.00 | 0.00 | 81 | 1015.1 |
| 20260505060039 | 54 | 236 | 0.0 | 0.0 | 0.00 | 0.00 | 0.00 | 81 | 1015.1 |
| 20260505055520 | 55 | 218 | 0.0 | 0.0 | 0.00 | 0.00 | 0.00 | 82 | 1015.1 |
| 20260505055031 | 55 | 218 | 0.0 | 0.0 | 0.00 | 0.00 | 0.00 | 83 | 1015.2 |
| 20260505054531 | 55 | 218 | 0.0 | 0.0 | 0.00 | 0.00 | 0.00 | 83 | 1015.2 |
| 20260505054022 | 55 | 218 | 0.0 | 0.0 | 0.00 | 0.00 | 0.00 | 83 | 1015.2 |
| 20260505053524 | 55 | 209 | 0.0 | 4.0 | 0.00 | 0.00 | 0.00 | 83 | 1015.2 |
| 20260505053051 | 55 | 213 | 0.0 | 4.0 | 0.00 | 0.00 | 0.00 | 83 | 1015.2 |
| 20260505052533 | 55 | 291 | 0.0 | 0.0 | 0.00 | 0.00 | 0.00 | 83 | 1015.2 |
| 20260505052023 | 55 | 291 | 0.0 | 0.0 | 0.00 | 0.00 | 0.00 | 82 | 1015.3 |
| 20260505051518 | 55 | 290 | 0.0 | 0.0 | 0.00 | 0.00 | 0.00 | 82 | 1015.2 |
| 20260505051030 | 55 | 290 | 0.0 | 0.0 | 0.00 | 0.00 | 0.00 | 82 | 1015.2 |
| 20260505050546 | 55 | 290 | 0.0 | 2.0 | 0.00 | 0.00 | 0.00 | 82 | 1015.2 |
| 20260505041532 | 55 | 344 | 0.0 | 5.0 | 0.00 | 0.00 | 0.00 | 80 | 1015.2 |
| 20260505041022 | 56 | 346 | 1.0 | 5.0 | 0.00 | 0.00 | 0.00 | 80 | 1015.3 |
| 20260505040541 | 56 | 27 | 0.0 | 2.0 | 0.00 | 0.00 | 0.00 | 80 | 1015.3 |
| 20260505040014 | 56 | 28 | 0.0 | 5.0 | 0.00 | 0.00 | 0.00 | 79 | 1015.3 |
| 20260505035555 | 56 | 28 | 0.0 | 5.0 | 0.00 | 0.00 | 0.00 | 79 | 1015.3 |
| 20260505035046 | 56 | 294 | 0.0 | 0.0 | 0.00 | 0.00 | 0.00 | 78 | 1015.3 |
| 20260505034526 | 56 | 295 | 0.0 | 4.0 | 0.00 | 0.00 | 0.00 | 78 | 1015.2 |
| 20260505034039 | 56 | 292 | 1.0 | 3.0 | 0.00 | 0.00 | 0.00 | 79 | 1015.2 |
| 20260505033540 | 56 | 5 | 0.0 | 2.0 | 0.00 | 0.00 | 0.00 | 79 | 1015.2 |
| 20260505033030 | 56 | 5 | 0.0 | 4.0 | 0.00 | 0.00 | 0.00 | 79 | 1015.1 |
| 20260505032531 | 56 | 5 | 1.0 | 8.0 | 0.00 | 0.00 | 0.00 | 78 | 1015.1 |
| 20260505032024 | 56 | 336 | 2.0 | 8.0 | 0.00 | 0.00 | 0.00 | 77 | 1015.1 |
| 20260505031521 | 57 | 306 | 0.0 | 3.0 | 0.00 | 0.00 | 0.00 | 77 | 1015.0 |
| 20260505031030 | 57 | 211 | 0.0 | 4.0 | 0.00 | 0.00 | 0.00 | 77 | 1014.9 |
| 20260505030626 | 57 | 211 | 0.0 | 4.0 | 0.00 | 0.00 | 0.00 | 77 | 1014.8 |
| 20260505030032 | 57 | 291 | 1.0 | 5.0 | 0.00 | 0.00 | 0.00 | 77 | 1014.8 |
| 20260505025533 | 57 | 190 | 1.0 | 4.0 | 0.00 | 0.00 | 0.00 | 76 | 1014.8 |
| 20260505025040 | 57 | 340 | 1.0 | 8.0 | 0.00 | 0.00 | 0.00 | 76 | 1014.8 |
| 20260505024519 | 57 | 331 | 2.0 | 8.0 | 0.00 | 0.00 | 0.00 | 75 | 1014.8 |
| 20260505024030 | 58 | 340 | 3.0 | 8.0 | 0.00 | 0.00 | 0.00 | 75 | 1014.8 |
| 20260505023552 | 58 | 336 | 1.0 | 6.0 | 0.00 | 0.00 | 0.00 | 73 | 1014.8 |
| 20260505023044 | 58 | 333 | 3.0 | 6.0 | 0.00 | 0.00 | 0.00 | 73 | 1014.7 |
| 20260505022518 | 59 | 191 | 0.0 | 6.0 | 0.00 | 0.00 | 0.00 | 72 | 1014.8 |
| 20260505022037 | 59 | 197 | 1.0 | 7.0 | 0.00 | 0.00 | 0.00 | 71 | 1014.8 |
| 20260505021540 | 59 | 209 | 2.0 | 7.0 | 0.00 | 0.00 | 0.00 | 70 | 1014.8 |
| 20260505021031 | 59 | 355 | 1.0 | 8.0 | 0.00 | 0.00 | 0.00 | 70 | 1014.8 |
| 20260505020606 | 59 | 257 | 1.0 | 8.0 | 0.00 | 0.00 | 0.00 | 69 | 1014.8 |
| 20260505020017 | 59 | 281 | 0.0 | 6.0 | 0.00 | 0.00 | 0.00 | 68 | 1014.8 |
| 20260505015534 | 60 | 242 | 2.0 | 6.0 | 0.00 | 0.00 | 0.00 | 67 | 1014.7 |
| 20260505015045 | 60 | 118 | 0.0 | 5.0 | 0.00 | 0.00 | 0.00 | 66 | 1014.7 |
| 20260505014523 | 60 | 99 | 1.0 | 5.0 | 0.00 | 0.00 | 0.00 | 65 | 1014.8 |
| 20260505014022 | 61 | 339 | 1.0 | 8.0 | 0.00 | 0.00 | 0.00 | 65 | 1014.8 |
| 20260505013524 | 61 | 223 | 2.0 | 8.0 | 0.00 | 0.00 | 0.00 | 64 | 1014.8 |
| 20260505013018 | 61 | 200 | 2.0 | 7.0 | 0.00 | 0.00 | 0.00 | 65 | 1014.9 |
| 20260505012517 | 61 | 224 | 1.0 | 7.0 | 0.00 | 0.00 | 0.00 | 65 | 1014.9 |
| 20260505012035 | 61 | 337 | 1.0 | 7.0 | 0.00 | 0.00 | 0.00 | 64 | 1014.9 |
| 20260505011535 | 62 | 208 | 1.0 | 7.0 | 0.00 | 0.00 | 0.00 | 65 | 1014.9 |
| 20260505011023 | 62 | 225 | 0.0 | 6.0 | 0.00 | 0.00 | 0.00 | 66 | 1014.9 |
| 20260505010542 | 62 | 229 | 3.0 | 8.0 | 0.00 | 0.00 | 0.00 | 65 | 1015.0 |
| 20260505010035 | 61 | 196 | 2.0 | 9.0 | 0.00 | 0.00 | 0.00 | 64 | 1015.0 |
| 20260505005534 | 62 | 219 | 1.0 | 9.0 | 0.00 | 0.00 | 0.00 | 64 | 1015.0 |
| 20260505005027 | 62 | 209 | 2.0 | 9.0 | 0.00 | 0.00 | 0.00 | 63 | 1015.1 |
| 20260505004530 | 62 | 194 | 3.0 | 9.0 | 0.00 | 0.00 | 0.00 | 62 | 1015.1 |
| 20260505004024 | 62 | 203 | 3.0 | 9.0 | 0.00 | 0.00 | 0.00 | 61 | 1015.1 |
| 20260505003544 | 62 | 220 | 2.0 | 9.0 | 0.00 | 0.00 | 0.00 | 62 | 1015.1 |
| 20260505003040 | 63 | 207 | 4.0 | 9.0 | 0.00 | 0.00 | 0.00 | 62 | 1015.0 |
| 20260505002514 | 63 | 208 | 3.0 | 9.0 | 0.00 | 0.00 | 0.00 | 63 | 1015.0 |
| 20260505002052 | 63 | 163 | 4.0 | 9.0 | 0.00 | 0.00 | 0.00 | 63 | 1015.0 |
| 20260505001549 | 63 | 212 | 2.0 | 6.0 | 0.00 | 0.00 | 0.00 | 63 | 1014.9 |
| 20260505001018 | 63 | 185 | 2.0 | 6.0 | 0.00 | 0.00 | 0.00 | 62 | 1014.8 |
| 20260505000541 | 63 | 144 | 4.0 | 7.0 | 0.00 | 0.00 | 0.00 | 58 | 1014.8 |
| 20260505000053 | 63 | 221 | 2.0 | 7.0 | 0.00 | 0.00 | 0.00 | 61 | 1014.9 |
| 20260504235554 | 64 | 212 | 0.0 | 6.0 | 0.00 | 0.00 | 0.00 | 62 | 1014.8 |
| 20260504235021 | 64 | 191 | 3.0 | 10.0 | 0.00 | 0.00 | 0.00 | 61 | 1014.9 |
| 20260504234522 | 64 | 172 | 3.0 | 10.0 | 0.00 | 0.00 | 0.00 | 61 | 1014.8 |
| 20260504234020 | 64 | 223 | 3.0 | 10.0 | 0.00 | 0.00 | 0.00 | 61 | 1014.8 |
| 20260504233542 | 65 | 233 | 3.0 | 10.0 | 0.00 | 0.00 | 0.00 | 60 | 1014.8 |
| 20260504233019 | 65 | 269 | 4.0 | 10.0 | 0.00 | 0.00 | 0.00 | 60 | 1014.8 |
| 20260504232521 | 65 | 234 | 5.0 | 10.0 | 0.00 | 0.00 | 0.00 | 62 | 1014.7 |
| 20260504232034 | 65 | 196 | 4.0 | 10.0 | 0.00 | 0.00 | 0.00 | 63 | 1014.8 |
| 20260504231535 | 64 | 217 | 4.0 | 12.0 | 0.00 | 0.00 | 0.00 | 64 | 1014.9 |
| 20260504231032 | 65 | 250 | 5.0 | 14.0 | 0.00 | 0.00 | 0.00 | 64 | 1014.9 |
| 20260504230557 | 65 | 258 | 6.0 | 14.0 | 0.00 | 0.00 | 0.00 | 63 | 1014.9 |
| 20260504230022 | 65 | 181 | 6.0 | 12.0 | 0.00 | 0.00 | 0.00 | 61 | 1014.9 |
| 20260504225540 | 64 | 211 | 4.0 | 9.0 | 0.00 | 0.00 | 0.00 | 62 | 1014.9 |
| 20260504225038 | 65 | 150 | 5.0 | 9.0 | 0.00 | 0.00 | 0.00 | 61 | 1015.0 |
| 20260504224513 | 65 | 196 | 5.0 | 12.0 | 0.00 | 0.00 | 0.00 | 60 | 1015.1 |
| 20260504224033 | 65 | 207 | 5.0 | 12.0 | 0.00 | 0.00 | 0.00 | 60 | 1015.1 |
| 20260504223534 | 66 | 170 | 5.0 | 10.0 | 0.00 | 0.00 | 0.00 | 61 | 1015.1 |
| 20260504223042 | 66 | 189 | 5.0 | 11.0 | 0.00 | 0.00 | 0.00 | 59 | 1015.2 |
| 20260504222515 | 66 | 223 | 4.0 | 12.0 | 0.00 | 0.00 | 0.00 | 58 | 1015.2 |
| 20260504222014 | 66 | 195 | 6.0 | 12.0 | 0.00 | 0.00 | 0.00 | 58 | 1015.3 |
| 20260504221535 | 66 | 198 | 2.0 | 7.0 | 0.00 | 0.00 | 0.00 | 58 | 1015.2 |
| 20260504221047 | 67 | 203 | 2.0 | 12.0 | 0.00 | 0.00 | 0.00 | 56 | 1015.4 |
| 20260504220609 | 67 | 238 | 7.0 | 12.0 | 0.00 | 0.00 | 0.00 | 54 | 1015.5 |
| 20260504220033 | 68 | 252 | 5.0 | 12.0 | 0.00 | 0.00 | 0.00 | 54 | 1015.4 |
| 20260504215557 | 68 | 204 | 6.0 | 12.0 | 0.00 | 0.00 | 0.00 | 56 | 1015.5 |
| 20260504215026 | 67 | 190 | 3.0 | 10.0 | 0.00 | 0.00 | 0.00 | 56 | 1015.5 |
| 20260504214527 | 67 | 221 | 5.0 | 14.0 | 0.00 | 0.00 | 0.00 | 55 | 1015.6 |
| 20260504214017 | 67 | 210 | 5.0 | 14.0 | 0.00 | 0.00 | 0.00 | 55 | 1015.6 |
| 20260504213533 | 67 | 184 | 5.0 | 15.0 | 0.00 | 0.00 | 0.00 | 54 | 1015.5 |
| 20260504213024 | 67 | 155 | 4.0 | 15.0 | 0.00 | 0.00 | 0.00 | 54 | 1015.6 |
| 20260504212526 | 67 | 222 | 7.0 | 15.0 | 0.00 | 0.00 | 0.00 | 53 | 1015.6 |
| 20260504212017 | 67 | 223 | 7.0 | 15.0 | 0.00 | 0.00 | 0.00 | 52 | 1015.6 |
| 20260504211517 | 67 | 134 | 7.0 | 15.0 | 0.00 | 0.00 | 0.00 | 52 | 1015.6 |
| 20260504211028 | 67 | 212 | 6.0 | 12.0 | 0.00 | 0.00 | 0.00 | 52 | 1015.6 |
| 20260504210602 | 68 | 214 | 7.0 | 16.0 | 0.00 | 0.00 | 0.00 | 51 | 1015.6 |
| 20260504210025 | 68 | 180 | 8.0 | 16.0 | 0.00 | 0.00 | 0.00 | 52 | 1015.5 |
| 20260504205525 | 68 | 219 | 6.0 | 13.0 | 0.00 | 0.00 | 0.00 | 52 | 1015.5 |
| 20260504205036 | 68 | 225 | 5.0 | 11.0 | 0.00 | 0.00 | 0.00 | 52 | 1015.5 |
| 20260504204536 | 68 | 242 | 3.0 | 15.0 | 0.00 | 0.00 | 0.00 | 52 | 1015.5 |
| 20260504204019 | 68 | 211 | 5.0 | 15.0 | 0.00 | 0.00 | 0.00 | 51 | 1015.4 |
| 20260504203542 | 69 | 187 | 5.0 | 10.0 | 0.00 | 0.00 | 0.00 | 51 | 1015.4 |
| 20260504203030 | 69 | 172 | 3.0 | 12.0 | 0.00 | 0.00 | 0.00 | 50 | 1015.4 |
| 20260504202531 | 69 | 147 | 5.0 | 15.0 | 0.00 | 0.00 | 0.00 | 50 | 1015.3 |
| 20260504202024 | 69 | 212 | 6.0 | 14.0 | 0.00 | 0.00 | 0.00 | 48 | 1015.2 |
| 20260504201540 | 68 | 176 | 4.0 | 10.0 | 0.00 | 0.00 | 0.00 | 51 | 1015.2 |
| 20260504201032 | 68 | 209 | 2.0 | 11.0 | 0.00 | 0.00 | 0.00 | 48 | 1015.4 |
| 20260504200600 | 68 | 181 | 2.0 | 11.0 | 0.00 | 0.00 | 0.00 | 48 | 1015.3 |
| 20260504200042 | 67 | 327 | 1.0 | 11.0 | 0.00 | 0.00 | 0.00 | 52 | 1015.3 |
| 20260504195543 | 67 | 204 | 2.0 | 11.0 | 0.00 | 0.00 | 0.00 | 51 | 1015.2 |
| 20260504195030 | 67 | 258 | 2.0 | 11.0 | 0.00 | 0.00 | 0.00 | 49 | 1015.3 |
| 20260504194532 | 67 | 341 | 4.0 | 10.0 | 0.00 | 0.00 | 0.00 | 50 | 1015.5 |
| 20260504194022 | 66 | 212 | 4.0 | 9.0 | 0.00 | 0.00 | 0.00 | 50 | 1015.4 |
| 20260504193537 | 66 | 268 | 2.0 | 16.0 | 0.00 | 0.00 | 0.00 | 52 | 1015.5 |
| 20260504193046 | 66 | 292 | 5.0 | 16.0 | 0.00 | 0.00 | 0.00 | 50 | 1015.5 |
| 20260504192514 | 67 | 341 | 3.0 | 9.0 | 0.00 | 0.00 | 0.00 | 49 | 1015.6 |
| 20260504192046 | 67 | 323 | 3.0 | 9.0 | 0.00 | 0.00 | 0.00 | 50 | 1015.5 |
| 20260504191523 | 67 | 241 | 3.0 | 8.0 | 0.00 | 0.00 | 0.00 | 55 | 1015.5 |
| 20260504191020 | 66 | 192 | 2.0 | 7.0 | 0.00 | 0.00 | 0.00 | 54 | 1015.5 |
| 20260504190544 | 65 | 223 | 2.0 | 7.0 | 0.00 | 0.00 | 0.00 | 55 | 1015.6 |
| 20260504190024 | 64 | 329 | 1.0 | 6.0 | 0.00 | 0.00 | 0.00 | 59 | 1015.6 |
| 20260504185525 | 64 | 315 | 1.0 | 15.0 | 0.00 | 0.00 | 0.00 | 58 | 1015.6 |
| 20260504185023 | 64 | 337 | 5.0 | 15.0 | 0.00 | 0.00 | 0.00 | 57 | 1015.8 |
| 20260504184522 | 63 | 340 | 4.0 | 12.0 | 0.00 | 0.00 | 0.00 | 58 | 1015.7 |
| 20260504184021 | 63 | 344 | 1.0 | 9.0 | 0.00 | 0.00 | 0.00 | 60 | 1015.8 |
| 20260504183522 | 64 | 335 | 1.0 | 9.0 | 0.00 | 0.00 | 0.00 | 59 | 1015.7 |
| 20260504183017 | 64 | 349 | 2.0 | 8.0 | 0.00 | 0.00 | 0.00 | 60 | 1015.6 |
| 20260504182554 | 63 | 205 | 1.0 | 9.0 | 0.00 | 0.00 | 0.00 | 59 | 1015.9 |
| 20260504182024 | 63 | 5 | 1.0 | 12.0 | 0.00 | 0.00 | 0.00 | 60 | 1015.9 |
| 20260504181524 | 64 | 329 | 4.0 | 12.0 | 0.00 | 0.00 | 0.00 | 59 | 1016.1 |
| 20260504181016 | 64 | 269 | 2.0 | 11.0 | 0.00 | 0.00 | 0.00 | 60 | 1016.0 |
| 20260504180559 | 63 | 19 | 1.0 | 11.0 | 0.00 | 0.00 | 0.00 | 62 | 1016.1 |
| 20260504180017 | 62 | 269 | 0.0 | 9.0 | 0.00 | 0.00 | 0.00 | 65 | 1016.0 |
| 20260504175520 | 62 | 342 | 2.0 | 13.0 | 0.00 | 0.00 | 0.00 | 63 | 1016.0 |
| 20260504175055 | 62 | 309 | 4.0 | 9.0 | 0.00 | 0.00 | 0.00 | 62 | 1015.9 |
| 20260504174532 | 62 | 313 | 1.0 | 9.0 | 0.00 | 0.00 | 0.00 | 63 | 1016.0 |
| 20260504174024 | 62 | 291 | 1.0 | 8.0 | 0.00 | 0.00 | 0.00 | 64 | 1016.0 |
| 20260504173520 | 61 | 202 | 3.0 | 9.0 | 0.00 | 0.00 | 0.00 | 64 | 1015.9 |
| 20260504173031 | 61 | 342 | 1.0 | 10.0 | 0.00 | 0.00 | 0.00 | 64 | 1015.9 |
| 20260504172535 | 61 | 336 | 3.0 | 11.0 | 0.00 | 0.00 | 0.00 | 62 | 1015.8 |
| 20260504172044 | 61 | 323 | 4.0 | 11.0 | 0.00 | 0.00 | 0.00 | 63 | 1015.9 |
| 20260504171522 | 61 | 336 | 1.0 | 5.0 | 0.00 | 0.00 | 0.00 | 62 | 1016.0 |
| 20260504171029 | 61 | 335 | 1.0 | 11.0 | 0.00 | 0.00 | 0.00 | 64 | 1015.8 |
| 20260504170552 | 61 | 223 | 2.0 | 11.0 | 0.00 | 0.00 | 0.00 | 64 | 1015.8 |